Preview of NWS' New Version of Forecast
This preview is not operational and should not be used for support decisions.

Regional Weather Roundup (RWR)

Issued by National Weather Service (NWS)

                            
000
ASUS43 KBIS 180302
RWRND 

NORTH DAKOTA REGIONAL WEATHER ROUNDUP
NATIONAL WEATHER SERVICE BISMARCK ND
1000 PM CDT MON JUN 17 2019

NOTE: "FAIR" INDICATES FEW OR NO CLOUDS BELOW 12,000 FEET WITH NO
SIGNIFICANT WEATHER AND/OR OBSTRUCTIONS TO VISIBILITY.


NDZ001>003-009>011-017-180400-
NORTHWEST NORTH DAKOTA
  
CITY           SKY/WX    TMP DP  RH WIND       PRES   REMARKS
WILLISTON      PTCLDY    63  45  51 E9        30.07R                  
MINOT          MOCLDY    60  48  64 NE6       30.06R                  
MINOT AFB      CLEAR     60  49  66 CALM      30.05R                  
$$
 
NDZ018>021-031>035-040>046-180400-
SOUTHWEST NORTH DAKOTA
  
CITY           SKY/WX    TMP DP  RH WIND       PRES   REMARKS
BISMARCK       PTCLDY    62  48  60 NE6       30.07R                  
DICKINSON      CLEAR     56  44  64 E6        30.06R                  
GARRISON         N/A     59  47  64 NE3       30.06R                  
HETTINGER ARPT PTCLDY    59  49  69 E7        30.07R                  
$$
 
NDZ004>008-012>016-024-026-027-054-180400-
NORTHEAST NORTH DAKOTA
  
CITY           SKY/WX    TMP DP  RH WIND       PRES   REMARKS
GRAND FORKS    CLOUDY    58  55  90 NW5       30.00R                  
DEVILS LAKE    CLOUDY    59  54  83 NW5       30.06R                  
$$
 
NDZ022-023-025-028>030-036>039-047>053-180400-
SOUTHEAST NORTH DAKOTA
  
CITY           SKY/WX    TMP DP  RH WIND       PRES   REMARKS
FARGO          CLOUDY    60  55  83 NW8       30.01R                  
JAMESTOWN      CLOUDY    58  53  84 N7        30.05R                  
$$